Date String (YYYY-MM-DD hh:mm:ss) UTC,Instrument flags,Ambient pressure (hPa),Sample flow (lpm),Bypass flow (lpm),Sample temperature (°C),Ambient temperature (°C),ASC tube jacket temperature (°C),LED temperature (°C),Box temperature (°C),Sample RH (%),Span deviation,Mass concentration (μg/m³),Mass concentration (μg/m³),Mass concentration (μg/m³)
DateTimeUTC,F1_M11,P_M11,Q1_M11,Q2_M11,T1_M11,T2_M11,T3_M11,T4_M11,T5_M11,U1_M11,ZSPAN_M11,X2_M11,X0_M11,X1_M11
2023-02-01 12:00:00,,0824.8,5.02,0.00,22.5,21.1,00.0,31.3,24.2,06.9,0000.0,0003.62,0006.96,0003.24
2023-02-01 12:01:00,,0824.8,5.03,0.00,22.4,20.8,00.0,31.3,24.0,06.9,0000.0,0003.79,0007.34,0003.40
2023-02-01 12:02:00,,0824.8,5.03,0.00,22.4,20.5,00.0,31.3,23.9,06.9,0000.0,0004.08,0007.75,0003.68
2023-02-01 12:03:00,,0824.7,5.08,0.00,22.3,20.4,00.0,31.3,23.9,06.9,0000.0,0004.45,0008.00,0004.05
2023-02-01 12:04:00,,0824.7,5.01,0.00,22.3,20.4,00.0,31.3,23.9,06.9,0000.0,0004.77,0008.18,0004.37
2023-02-01 12:05:00,,0824.8,4.95,0.00,22.3,20.4,00.0,31.3,23.9,06.9,0000.0,0005.31,0009.27,0004.88
2023-02-01 12:06:00,,0824.8,4.98,0.00,22.2,20.4,00.0,31.2,23.9,06.9,0000.0,0005.66,0009.91,0005.23
2023-02-01 12:07:00,,0824.9,4.98,0.00,22.2,20.6,00.0,31.2,23.9,06.9,0000.0,0005.83,0010.74,0005.40
2023-02-01 12:08:00,,0824.8,5.00,0.00,22.3,21.7,00.0,31.2,24.1,06.9,0000.0,0006.05,0011.14,0005.60
2023-02-01 12:09:00,,0824.8,4.99,0.00,22.4,22.7,00.0,31.2,24.4,06.8,0000.0,0006.23,0011.29,0005.78
2023-02-01 12:10:00,,0824.8,4.98,0.00,22.5,22.9,00.0,31.2,24.6,06.8,-000.1,0006.39,0011.47,0005.93
2023-02-01 12:11:00,,0824.7,5.00,0.00,22.6,22.4,00.0,31.2,24.4,06.8,0000.2,0006.54,0011.60,0006.07
2023-02-01 12:12:00,,0824.6,4.99,0.00,22.5,21.9,00.0,31.3,24.3,06.8,0000.1,0006.62,0011.74,0006.15
2023-02-01 12:13:00,,0824.7,5.03,0.00,22.5,21.6,00.0,31.3,24.2,06.8,0000.2,0006.56,0011.67,0006.12
2023-02-01 12:14:00,,0824.8,4.98,0.00,22.5,21.3,00.0,31.3,24.2,06.8,0000.1,0006.41,0011.51,0005.97
2023-02-01 12:15:00,,0824.8,5.00,0.00,22.4,21.1,00.0,31.3,24.1,06.8,0000.1,0006.28,0011.32,0005.83
2023-02-01 12:16:00,,0824.9,4.99,0.00,22.4,20.9,00.0,31.3,24.1,06.8,0000.0,0005.87,0010.40,0005.43
2023-02-01 12:17:00,,0824.9,4.99,0.00,22.4,20.8,00.0,31.3,24.1,06.8,0000.0,0005.62,0009.86,0005.21
2023-02-01 12:18:00,,0824.9,4.99,0.00,22.4,20.8,00.0,31.3,24.0,06.9,0000.0,0005.50,0009.08,0005.09
2023-02-01 12:19:00,,0825.0,5.00,0.00,22.3,20.7,00.0,31.3,24.0,06.9,0000.0,0005.29,0008.72,0004.91
2023-02-01 12:20:00,,0824.9,5.02,0.00,22.3,20.7,00.0,31.3,24.0,06.8,0000.0,0005.16,0008.74,0004.77
2023-02-01 12:21:00,,0824.9,4.98,0.00,22.3,20.7,00.0,31.2,24.0,06.8,0000.0,0005.11,0008.71,0004.72
2023-02-01 12:22:00,,0825.0,5.02,0.00,22.3,21.3,00.0,31.2,24.1,06.9,0000.0,0005.18,0008.87,0004.76
2023-02-01 12:23:00,,0825.1,5.01,0.00,22.4,22.4,00.0,31.2,24.4,07.0,0000.0,0005.34,0009.06,0004.89
2023-02-01 12:24:00,,0825.0,5.00,0.00,22.6,23.1,00.0,31.2,24.6,07.0,0000.0,0005.49,0009.27,0005.01
2023-02-01 12:25:00,,0825.0,4.99,0.00,22.6,22.7,00.0,31.3,24.6,06.9,0000.0,0005.62,0009.36,0005.14
2023-02-01 12:26:00,,0824.9,5.02,0.00,22.6,22.2,00.0,31.3,24.5,06.9,0000.0,0005.71,0009.50,0005.25
2023-02-01 12:27:00,,0824.9,4.98,0.00,22.6,21.9,00.0,31.3,24.4,06.9,0000.0,0005.84,0009.77,0005.34
2023-02-01 12:28:00,,0824.9,5.01,0.00,22.6,21.6,00.0,31.3,24.3,06.9,0000.0,0006.00,0010.80,0005.46
2023-02-01 12:29:00,,0824.9,5.02,0.00,22.5,21.4,00.0,31.4,24.3,06.9,0000.0,0006.22,0011.61,0005.59
2023-02-01 12:30:00,,0824.9,4.99,0.00,22.5,21.2,00.0,31.4,24.2,06.9,-000.7,0006.58,0012.51,0005.90
2023-02-01 12:31:00,,0824.9,5.02,0.00,22.5,21.1,00.0,31.4,24.2,06.9,-002.7,0006.79,0012.66,0006.12
2023-02-01 12:32:00,,0824.9,5.00,0.00,22.5,21.0,00.0,31.4,24.1,06.9,-002.6,0006.93,0012.85,0006.23
2023-02-01 12:33:00,,0824.9,4.99,0.00,22.4,20.9,00.0,31.3,24.1,06.9,-002.1,0006.87,0012.78,0006.17
2023-02-01 12:34:00,,0824.9,4.99,0.00,22.4,20.8,00.0,31.3,24.1,06.9,-000.2,0006.64,0012.44,0005.98
2023-02-01 12:35:00,,0824.9,5.01,0.00,22.4,20.8,00.0,31.3,24.1,07.0,0000.0,0006.42,0012.20,0005.79
2023-02-01 12:36:00,,0824.9,4.99,0.00,22.4,20.7,00.0,31.3,24.1,07.0,0000.0,0006.30,0012.21,0005.64
2023-02-01 12:37:00,,0824.9,4.99,0.00,22.3,20.9,00.0,31.3,24.1,07.1,0000.0,0006.24,0012.26,0005.55
2023-02-01 12:38:00,,0824.9,5.01,0.00,22.4,21.9,00.0,31.3,24.3,07.1,0000.0,0006.10,0012.05,0005.45
2023-02-01 12:39:00,,0824.9,5.01,0.00,22.5,22.7,00.0,31.3,24.5,07.1,0000.0,0005.98,0011.12,0005.32
2023-02-01 12:40:00,,0825.0,4.98,0.00,22.6,22.8,00.0,31.3,24.6,07.1,0000.0,0005.78,0010.48,0005.20
2023-02-01 12:41:00,,0825.0,5.02,0.00,22.6,22.3,00.0,31.3,24.5,07.0,0000.0,0005.46,0009.62,0004.94
2023-02-01 12:42:00,,0825.0,5.00,0.00,22.6,22.0,00.0,31.4,24.4,07.0,0000.0,0005.21,0009.30,0004.73
2023-02-01 12:43:00,,0825.0,5.01,0.00,22.6,21.6,00.0,31.4,24.3,07.1,0000.0,0004.95,0009.01,0004.50
2023-02-01 12:44:00,,0825.0,5.00,0.00,22.6,21.3,00.0,31.4,24.3,07.1,0000.0,0004.76,0008.74,0004.32
2023-02-01 12:45:00,,0825.1,4.99,0.00,22.5,21.1,00.0,31.4,24.2,07.1,0000.0,0004.64,0008.59,0004.20
2023-02-01 12:46:00,,0825.1,4.98,0.00,22.5,21.0,00.0,31.4,24.2,07.1,0000.0,0004.56,0008.44,0004.10
2023-02-01 12:47:00,,0825.1,5.01,0.00,22.5,20.8,00.0,31.4,24.1,07.1,0000.0,0004.45,0008.25,0004.00
2023-02-01 12:48:00,,0825.1,4.98,0.00,22.4,20.7,00.0,31.4,24.1,07.1,0000.0,0004.27,0007.87,0003.85
2023-02-01 12:49:00,,0825.1,5.01,0.00,22.4,20.7,00.0,31.3,24.1,07.1,0000.0,0004.20,0007.68,0003.80
2023-02-01 12:50:00,,0825.1,4.99,0.00,22.4,20.6,00.0,31.3,24.0,07.1,0000.0,0004.08,0007.45,0003.72
2023-02-01 12:51:00,,0825.1,5.02,0.00,22.4,21.0,00.0,31.3,24.1,07.1,0000.0,0004.06,0007.36,0003.68
2023-02-01 12:52:00,,0825.1,4.99,0.00,22.5,22.1,00.0,31.3,24.3,07.1,0000.0,0004.01,0007.35,0003.62
2023-02-01 12:53:00,,0825.1,5.02,0.00,22.6,22.9,00.0,31.3,24.6,07.1,0000.0,0003.95,0007.22,0003.53
2023-02-01 12:54:00,,0825.2,4.99,0.00,22.7,22.8,00.0,31.3,24.6,07.0,0000.0,0003.94,0007.07,0003.48
2023-02-01 12:55:00,,0825.2,5.00,0.00,22.7,22.4,00.0,31.4,24.5,07.0,0000.0,0003.97,0007.25,0003.51
2023-02-01 12:56:00,,0825.1,4.99,0.00,22.6,22.0,00.0,31.4,24.4,06.9,0000.0,0004.13,0007.61,0003.64
2023-02-01 12:57:00,,0825.1,4.96,0.00,22.6,21.7,00.0,31.4,24.4,07.0,0000.0,0004.28,0007.99,0003.79
2023-02-01 12:58:00,,0825.1,4.99,0.00,22.6,21.5,00.0,31.4,24.3,07.0,0000.0,0004.37,0008.52,0003.90
2023-02-01 12:59:00,,0825.1,5.04,0.00,22.6,21.2,00.0,31.4,24.3,07.0,0000.0,0004.44,0008.75,0003.95
